Torna al catalogo

STARLINK-5688

AttivoComunicazioniVLEO
NORAD 55479·PAYLOAD·🇺🇸 United States

Lanciato Feb 2, 2023 da Cape Canaveral Space Force Station

Loading…

Prossimi Passaggi (prossime 24 ore)

TLE

AggiornatoSource: CelesTrak SupGP

Epoca: Sep 14, 2026, 22:21 UTC

1 55479C 23015AG  26257.93173611 -.00046839  00000+0 -16966-2 0  2572
2 55479  43.0033 332.8669 0001555 282.2995 130.1506 15.27600391    16

Traccia STARLINK-5688 in tempo reale con AllMySat

Download on the App Store